Culpeper, VA

6:48 PM EDT on October 16, 2019 (GMT -0400)
Culpeper Regional

Weather History for KCJR - September, 2019

Change the Weather History Date:

Thursday, September 19, 2019

  Actual Average (WUND) Record (WUND)
Temperature  
Mean Temperature 61 °F -  
Max Temperature 74 °F - - (-1)
Min Temperature 48 °F - - (-1)
Degree Days  
Heating Degree Days 4    
Growing Degree Days 11 (Base 50)    
Moisture  
Dew Point 48 °F    
Average Humidity 68    
Maximum Humidity 96    
Minimum Humidity 32    
Precipitation  
Precipitation 0.00 in - - ()
Sea Level Pressure  
Sea Level Pressure 30.32 in    
Wind  
Wind Speed 1 mph ()    
Max Wind Speed 10 mph    
Max Gust Speed 21 mph    
Visibility 9.9 miles    
Events      
Averages and records for this station are not official NWS values.
T = Trace of Precipitation, MM = Missing Value Source: Averaged Metar Reports

Daily Weather History Graph

Daily Weather History Graph

Search for Another Location

Airport or City:

Astronomy

Sep. 19, 2019 Rise Set
Actual Time 6:56 AM EDT 7:13 PM EDT
Civil Twilight 6:29 AM EDT 7:40 PM EDT
Nautical Twilight 5:58 AM EDT 8:11 PM EDT
Astronomical Twilight 5:26 AM EDT 8:42 PM EDT
Moon 10:25 PM EDT (9/19) 11:54 AM EDT (9/19)
Length of Visible Light 13h 10m
Length of Day
12h 17m
Waning Gibbous, 74% of the Moon is Illuminated
Sep 19
Waning Gibbous
Sep 21
Last Quarter
Sep 28
New
Oct 5
First Quarter
Oct 13
Full

Hourly Weather History & Observations

Time (EDT) Temp. Dew Point Humidity Pressure Visibility Wind Dir Wind Speed Gust Speed Precip Events Conditions
12:15 AM 54.7 °F 53.2 °F 95% 30.28 in 10.0 mi Calm Calm - N/A   Clear
12:35 AM 54.9 °F 53.2 °F 94% 30.28 in 10.0 mi North 3.5 mph - N/A   Scattered Clouds
12:55 AM 54.1 °F 52.5 °F 94% 30.28 in 10.0 mi Calm Calm - N/A   Scattered Clouds
1:15 AM 54.0 °F 52.5 °F 95% 30.28 in 10.0 mi Calm Calm - N/A   Clear
1:35 AM 54.0 °F 52.7 °F 95% 30.29 in 10.0 mi Calm Calm - N/A   Clear
1:55 AM 52.0 °F 50.5 °F 95% 30.28 in 5.0 mi Calm Calm - N/A   Clear
2:15 AM 52.2 °F 50.7 °F 95% 30.29 in 10.0 mi Calm Calm - N/A   Clear
2:35 AM 52.7 °F 51.3 °F 95% 30.29 in 10.0 mi Calm Calm - N/A   Clear
2:55 AM 52.3 °F 51.1 °F 95% 30.30 in 10.0 mi Calm Calm - N/A   Scattered Clouds
3:15 AM 53.4 °F 52.0 °F 95% 30.30 in 10.0 mi Calm Calm - N/A   Scattered Clouds
3:35 AM 53.8 °F 52.3 °F 95% 30.30 in 10.0 mi Calm Calm - N/A   Mostly Cloudy
3:55 AM 54.5 °F 52.9 °F 94% 30.30 in 10.0 mi Calm Calm - N/A   Overcast
4:15 AM 55.4 °F 53.8 °F 94% 30.31 in 10.0 mi NNE 3.5 mph - N/A   Overcast
4:35 AM 55.8 °F 54.5 °F 96% 30.31 in 10.0 mi Calm Calm - N/A   Overcast
4:55 AM 56.3 °F 54.9 °F 95% 30.31 in 10.0 mi Calm Calm - N/A   Overcast
5:15 AM 56.7 °F 55.2 °F 95% 30.32 in 10.0 mi Calm Calm - N/A   Overcast
5:35 AM 58.1 °F 55.6 °F 91% 30.32 in 10.0 mi Calm Calm - N/A   Overcast
5:55 AM 57.7 °F 55.6 °F 92% 30.32 in 10.0 mi Calm Calm - N/A   Overcast
6:15 AM 57.7 °F 56.1 °F 94% 30.32 in 10.0 mi Calm Calm - N/A   Overcast
6:35 AM 57.9 °F 56.3 °F 94% 30.32 in 10.0 mi Calm Calm - N/A   Overcast
6:55 AM 57.7 °F 56.1 °F 94% 30.33 in 10.0 mi Calm Calm - N/A   Overcast
7:15 AM 57.2 °F 55.6 °F 94% 30.33 in 10.0 mi Calm Calm - N/A   Overcast
7:35 AM 57.0 °F 55.4 °F 94% 30.33 in 10.0 mi Calm Calm - N/A   Mostly Cloudy
7:55 AM 56.7 °F 55.2 °F 95% 30.34 in 10.0 mi Calm Calm - N/A   Scattered Clouds
8:15 AM 59.9 °F 55.8 °F 86% 30.35 in 10.0 mi Calm Calm - N/A   Clear
8:35 AM 61.3 °F 54.7 °F 79% 30.34 in 10.0 mi Calm Calm - N/A   Clear
8:55 AM 62.8 °F 54.0 °F 73% 30.35 in 10.0 mi ESE 4.6 mph - N/A   Mostly Cloudy
9:15 AM 64.4 °F 52.2 °F 64% 30.36 in 10.0 mi Calm Calm - N/A   Overcast
9:55 AM 64.6 °F 47.7 °F 54% 30.37 in 10.0 mi East 4.6 mph - N/A   Mostly Cloudy
10:15 AM 65.3 °F 48.0 °F 54% 30.37 in 10.0 mi East 5.8 mph - N/A   Scattered Clouds
10:35 AM 67.5 °F 47.8 °F 49% 30.37 in 10.0 mi Calm Calm - N/A   Scattered Clouds
10:55 AM 68.0 °F 47.5 °F 48% 30.37 in 10.0 mi ESE 3.5 mph - N/A   Mostly Cloudy
11:15 AM 66.9 °F 47.1 °F 49% 30.37 in 10.0 mi ENE 4.6 mph - N/A   Scattered Clouds
11:35 AM 66.2 °F 47.3 °F 51% 30.37 in 10.0 mi East 3.5 mph - N/A   Mostly Cloudy
11:55 AM 67.6 °F 47.8 °F 49% 30.37 in 10.0 mi Calm Calm - N/A   Scattered Clouds
12:15 PM 69.6 °F 47.5 °F 45% 30.36 in 10.0 mi Calm Calm - N/A   Mostly Cloudy
12:35 PM 70.7 °F 46.8 °F 42% 30.36 in 10.0 mi SSE 4.6 mph - N/A   Scattered Clouds
12:55 PM 70.2 °F 47.5 °F 44% 30.34 in 10.0 mi West 10.4 mph 20.7 mph N/A   Mostly Cloudy
1:15 PM 70.5 °F 45.3 °F 40% 30.35 in 10.0 mi Calm Calm - N/A   Mostly Cloudy
1:35 PM 71.8 °F 46.8 °F 41% 30.34 in 10.0 mi ESE 5.8 mph - N/A   Scattered Clouds
1:55 PM 70.9 °F 45.3 °F 40% 30.33 in 10.0 mi Calm Calm - N/A   Clear
2:15 PM 71.6 °F 43.5 °F 36% 30.32 in 10.0 mi Calm Calm - N/A   Clear
2:35 PM 72.9 °F 43.9 °F 35% 30.31 in 10.0 mi North 4.6 mph - N/A   Clear
2:55 PM 73.6 °F 43.3 °F 34% 30.31 in 10.0 mi East 4.6 mph - N/A   Clear
3:15 PM 74.1 °F 42.1 °F 32% 30.30 in 10.0 mi SW 4.6 mph - N/A   Clear
3:35 PM 73.9 °F 42.8 °F 33% 30.29 in 10.0 mi Calm Calm - N/A   Clear
3:55 PM 73.8 °F 43.0 °F 33% 30.29 in 10.0 mi SW 3.5 mph - N/A   Clear
4:15 PM 74.1 °F 43.5 °F 33% 30.28 in 10.0 mi South 4.6 mph - N/A   Clear
4:35 PM 74.3 °F 43.7 °F 33% 30.28 in 10.0 mi Calm Calm - N/A   Clear
4:55 PM 74.1 °F 43.9 °F 34% 30.29 in 10.0 mi SE 3.5 mph - N/A   Clear
5:15 PM 73.8 °F 43.5 °F 34% 30.28 in 10.0 mi Calm Calm - N/A   Clear
5:35 PM 73.6 °F 43.2 °F 34% 30.28 in 10.0 mi ESE 4.6 mph - N/A   Clear
5:55 PM 73.0 °F 43.2 °F 34% 30.29 in 10.0 mi SE 3.5 mph - N/A   Clear
6:15 PM 72.1 °F 42.4 °F 34% 30.29 in 10.0 mi SSE 3.5 mph - N/A   Clear
6:35 PM 70.2 °F 41.5 °F 35% 30.29 in 10.0 mi ESE 3.5 mph - N/A   Clear
6:55 PM 68.4 °F 41.5 °F 38% 30.30 in 10.0 mi Calm Calm - N/A   Clear
7:15 PM 64.0 °F 43.7 °F 48% 30.30 in 10.0 mi Calm Calm - N/A   Clear
7:35 PM 59.9 °F 44.8 °F 57% 30.30 in 10.0 mi Calm Calm - N/A   Clear
7:55 PM 58.1 °F 44.8 °F 61% 30.30 in 10.0 mi Calm Calm - N/A   Clear
8:15 PM 55.8 °F 44.2 °F 65% 30.30 in 10.0 mi Calm Calm - N/A   Clear
8:35 PM 54.0 °F 45.0 °F 72% 30.30 in 10.0 mi Calm Calm - N/A   Clear
8:55 PM 54.0 °F 44.6 °F 71% 30.31 in 10.0 mi Calm Calm - N/A   Clear
9:15 PM 53.4 °F 44.4 °F 72% 30.30 in 10.0 mi Calm Calm - N/A   Clear
9:55 PM 50.5 °F 44.4 °F 80% 30.30 in 10.0 mi Calm Calm - N/A   Clear
10:15 PM 49.6 °F 44.6 °F 83% 30.31 in 10.0 mi Calm Calm - N/A   Clear
10:35 PM 48.6 °F 45.0 °F 87% 30.31 in 10.0 mi Calm Calm - N/A   Clear
10:55 PM 48.6 °F 45.3 °F 89% 30.31 in 10.0 mi Calm Calm - N/A   Clear
11:15 PM 48.9 °F 45.7 °F 89% 30.32 in 10.0 mi Calm Calm - N/A   Clear
11:35 PM 48.6 °F 45.3 °F 89% 30.31 in 10.0 mi Calm Calm - N/A   Clear
11:55 PM 48.9 °F 46.8 °F 92% 30.31 in 10.0 mi Calm Calm - N/A   Clear